20.04.2024;07:00;71
20.04.2024;06:00;70
20.04.2024;05:00;69
20.04.2024;04:00;69
20.04.2024;03:00;73
20.04.2024;02:00;79
20.04.2024;01:00;78
20.04.2024;00:00;75
19.04.2024;23:00;78
19.04.2024;22:00;81
19.04.2024;21:00;85
19.04.2024;20:00;87
19.04.2024;19:00;88
19.04.2024;18:00;89
19.04.2024;17:00;91
19.04.2024;16:00;93
19.04.2024;15:00;94
19.04.2024;14:00;93
19.04.2024;13:00;83
19.04.2024;12:00;77
19.04.2024;11:00;76
19.04.2024;10:00;74
19.04.2024;09:00;70
19.04.2024;08:00;70
19.04.2024;07:00;69
19.04.2024;06:00;66
19.04.2024;05:00;68
19.04.2024;04:00;71
19.04.2024;03:00;71
19.04.2024;02:00;71
19.04.2024;01:00;74
19.04.2024;00:00;73
18.04.2024;23:00;70
18.04.2024;22:00;75
18.04.2024;21:00;81
18.04.2024;20:00;82
18.04.2024;19:00;90
18.04.2024;18:00;92
18.04.2024;17:00;94
18.04.2024;16:00;93
18.04.2024;15:00;82
18.04.2024;14:00;79
18.04.2024;13:00;78
18.04.2024;12:00;73
18.04.2024;11:00;69
18.04.2024;10:00;61
18.04.2024;09:00;59
18.04.2024;08:00;61
